Location: Sawmill Trailhead
(33.5800°N, 116.4497°W)
Time: 16:42:41
(UTC-07:00)

Uosat F - Pass Details

Date: 24 April 2018
Orbit: 750 x 761 km, 98.7° (Epoch: 18 September)

Event Time Altitude Azimuth Distance (km) Brightness Sun altitude
Rises 21:01:19 0° 214° (SW) 3,195 14.4 -19.4°
Reaches altitude 10° 21:05:10 10° 245° (WSW) 2,274 14.0 -20.1°
Maximum altitude 21:07:04 12° 267° (W) 2,133 14.1 -20.4°
Drops below altitude 10° 21:08:59 10° 290° (WNW) 2,277 14.7 -20.7°
Sets 21:12:52 0° 321° (NW) 3,205 15.6 -21.4°
